Location: Peebles
(55.6412°N, 3.1714°W)
Time: 13:35:46
(UTC+00:00)

SPOT 5 - Visible Passes

Search period start: 24 January 2022 00:00
Search period end: 03 February 2022 00:00
Orbit: 623 x 814 km, 98.2° (Epoch: 24 January)

Date Brightness Start Highest point End Pass type
(mag) Time Alt. Az. Time Alt. Az. Time Alt. Az.
24 Jan 5.4 19:43:01 11° N 19:43:01 11° N 19:43:14 10° N visible
24 Jan 5.8 21:22:14 10° NNW 21:22:14 10° NNW 21:22:18 10° NNW visible
25 Jan 5.5 20:31:16 12° N 20:31:16 12° N 20:31:39 10° N visible
26 Jan 5.3 19:40:18 11° NNE 19:40:18 11° NNE 19:40:36 10° N visible
26 Jan 5.8 21:19:31 11° NNW 21:19:31 11° NNW 21:19:42 10° NNW visible
27 Jan 5.4 20:28:33 12° N 20:28:33 12° N 20:29:02 10° N visible
28 Jan 5.3 19:37:35 11° NNE 19:37:35 11° NNE 19:37:56 10° N visible
28 Jan 5.7 21:16:48 12° NNW 21:16:48 12° NNW 21:17:06 10° NNW visible
29 Jan 5.4 20:25:50 13° N 20:25:50 13° N 20:26:24 10° N visible
30 Jan 5.2 19:34:51 11° NNE 19:34:51 11° NNE 19:35:14 10° NNE visible
30 Jan 5.6 21:14:04 12° N 21:14:04 12° N 21:14:29 10° N visible
31 Jan 5.3 20:23:05 13° N 20:23:05 13° N 20:23:47 10° N visible
01 Feb 5.2 19:32:07 11° NNE 19:32:07 11° NNE 19:32:33 10° NNE visible
01 Feb 5.5 21:11:19 13° N 21:11:19 13° N 21:11:52 10° N visible
02 Feb 5.2 20:20:21 14° N 20:20:21 14° N 20:21:07 10° N visible
02 Feb 5.9 21:59:34 11° NNW 21:59:34 11° NNW 21:59:40 10° NNW visible
